Location: *
(49.3500°N, 12.6000°E)
Time: 20:59:26
(UTC+00:00)

IRS-1A Rocket - Pass Details

Date: 18 October 2019
Orbit: 852 x 931 km, 99.2° (Epoch: 11 November)

Event Time Altitude Azimuth Distance (km) Brightness Sun altitude
Exits shadow 17:45:12 - 151° (SSE) 3,232 6.9 -15.5°
Reaches altitude 10° 17:47:07 10° 148° (SSE) 2,479 6.3 -15.9°
Maximum altitude 17:52:31 62° 69° (ENE) 958 4.2 -16.7°
Drops below altitude 10° 17:57:58 10° 350° (N) 2,500 6.8 -17.6°
Sets 18:00:22 0° 347° (NNW) 3,446 7.6 -18.0°
